GFSFLT2_925_temp_114.txt.gz
Temp
22 22 22 22 22 21 21 20 20 20 20 20 20 20 20 20 20 20 20 19 20 19 19 19 18 18 18 18 18 18 18 17
21 21 21 20 20 20 20 20 20 20 20 20 20 20 19 19 20 20 19 19 19 19 19 18 18 18 18 18 18 18 18 17
21 22 21 21 19 20 20 20 20 20 20 19 19 19 19 19 19 19 19 19 19 19 18 18 18 17 17 18 18 18 17 17
20 21 20 20 19 19 19 19 19 19 19 19 19 19 19 19 19 19 19 19 19 18 18 18 17 17 17 17 18 18 18 17
19 20 20 19 19 19 19 19 19 19 19 19 19 19 19 19 19 19 19 19 18 18 17 17 18 17 17 17 17 18 18 17
19 19 19 19 19 19 19 19 19 19 19 19 19 18 18 18 18 18 18 18 18 17 17 17 17 17 17 17 17 18 18 18
20 20 19 19 19 18 18 19 19 19 19 19 19 18 18 18 18 18 18 18 18 18 17 17 17 17 17 16 17 17 17 17
19 20 19 19 19 20 20 19 19 19 19 19 18 18 18 18 17 17 18 18 18 18 18 17 17 16 16 16 16 17 17 18
19 19 19 19 19 20 20 20 19 19 19 19 19 18 18 18 17 16 17 18 18 17 17 16 16 16 16 16 16 16 16 17
19 19 19 20 20 20 20 20 19 19 18 19 18 18 18 18 17 17 17 17 17 17 17 16 16 16 17 16 15 15 15 16
19 19 19 20 19 19 19 19 19 19 18 18 18 18 18 18 18 17 17 16 17 17 16 16 16 15 15 15 15 15 15 15
20 19 19 18 17 17 17 18 18 19 19 18 18 18 18 17 18 18 17 16 16 16 15 14 15 14 13 13 14 14 14 14
19 18 18 17 17 17 17 17 17 18 19 18 18 18 18 17 17 17 17 16 16 15 15 14 14 14 14 14 14 14 14 14
19 18 18 17 17 17 17 17 17 16 17 18 18 18 18 17 17 17 17 15 15 15 15 14 14 14 14 14 13 13 13 14
15 18 18 17 17 17 17 17 16 16 16 17 18 18 17 17 17 17 16 16 15 15 15 14 14 14 14 15 13 14 12 13
10 15 17 17 17 17 17 17 17 17 16 16 16 17 17 17 17 16 17 16 15 15 15 15 14 14 13 14 15 14 13 12
8 11 14 15 17 17 17 17 17 17 16 16 16 16 16 17 16 16 16 17 16 16 15 14 14 14 14 14 13 14 14 12
6 8 10 12 14 16 16 17 17 16 16 16 16 16 16 16 16 16 16 15 15 15 15 15 14 14 14 14 14 14 13 13
4 5 6 9 10 11 13 15 16 17 16 16 15 15 15 16 16 16 16 16 15 15 15 14 14 14 14 14 14 14 14 14
3 4 5 6 8 9 10 13 14 15 16 16 16 15 15 16 16 15 15 15 16 16 15 14 14 15 14 14 14 13 13 13

GFSFLT2_925_temp_117.txt.gz
Temp
22 22 21 21 21 21 21 20 21 21 21 21 20 20 20 20 20 19 19 19 19 19 19 19 19 19 18 18 18 18 17 17
21 20 20 20 21 21 21 20 20 20 20 20 20 20 20 20 20 19 19 19 19 19 19 19 18 18 18 18 18 18 17 17
18 18 19 20 20 20 20 20 19 19 20 20 20 19 19 19 19 19 19 19 19 19 18 18 18 18 18 18 18 17 17 17
17 17 18 20 20 19 18 19 18 18 18 19 18 18 18 18 19 19 19 19 19 18 18 18 17 17 17 17 17 18 17 18
16 17 17 19 19 18 19 18 18 18 18 18 18 18 19 19 18 17 18 18 18 17 17 17 17 16 16 16 16 18 18 18
16 16 17 18 18 18 18 18 18 18 18 18 18 18 18 18 17 17 17 18 18 17 16 18 18 17 16 16 16 17 17 18
17 16 16 17 17 17 18 18 18 18 18 18 18 18 18 18 17 17 17 18 18 17 16 17 17 17 16 16 16 16 17 18
18 17 16 16 16 17 17 18 18 18 18 19 18 18 17 17 17 17 16 17 17 17 16 16 16 16 16 16 16 16 16 17
21 19 17 16 16 16 17 17 18 18 18 18 18 18 17 17 16 17 16 17 17 16 16 16 16 16 15 15 15 16 15 16
19 21 18 16 16 16 16 17 18 17 17 17 18 18 18 17 17 17 16 17 16 16 16 15 15 15 15 15 15 15 15 15
19 18 19 17 16 16 16 17 17 17 17 17 18 18 18 17 17 17 16 16 16 15 16 16 15 15 14 14 14 14 14 14
20 18 18 18 16 16 16 16 16 16 17 17 17 18 18 17 17 17 16 16 15 15 15 15 15 16 14 14 14 14 14 14
20 18 18 17 16 16 16 16 16 16 16 16 17 17 18 17 16 16 16 16 15 16 15 14 14 15 14 14 14 14 14 14
19 19 18 17 17 17 17 16 16 16 16 16 16 17 18 17 17 16 16 15 15 15 15 14 14 14 14 14 14 14 13 14
12 18 18 17 17 17 17 16 16 16 16 16 16 16 18 17 17 16 16 16 15 14 14 14 14 14 14 15 14 15 14 13
10 14 17 17 17 17 17 17 17 17 16 16 16 16 16 17 17 17 16 15 15 15 14 15 14 14 14 14 16 15 15 14
8 10 13 16 17 17 17 17 17 17 16 16 16 16 16 17 17 16 16 15 15 15 15 15 15 15 14 14 14 14 14 14
6 8 8 11 14 15 16 17 17 17 16 16 16 16 16 16 16 16 16 15 15 15 15 15 15 14 14 14 14 14 13 13
5 7 7 7 10 12 13 15 16 17 16 16 16 16 16 16 16 16 16 15 15 15 15 15 14 14 14 14 14 15 15 15
3 5 5 6 7 8 10 12 13 14 16 16 16 16 16 16 15 15 16 15 15 15 15 15 15 15 14 14 14 14 14 14

GFSFLT2_925_temp_120.txt.gz
Temp
22 20 21 22 22 22 21 21 21 21 21 21 21 21 20 20 20 20 20 19 20 20 20 19 19 19 19 19 19 19 20 19
21 21 20 20 20 21 21 21 21 21 21 20 20 20 20 20 20 20 19 19 19 19 19 19 19 19 18 18 19 19 19 19
21 20 19 21 20 19 20 20 20 20 20 20 20 20 19 19 19 19 19 19 19 19 19 19 19 18 18 18 19 18 18 18
20 19 19 19 19 20 19 19 19 19 19 19 20 21 20 20 19 19 19 19 19 19 19 18 18 19 17 17 18 18 18 18
19 18 18 18 19 18 19 19 21 20 20 20 20 20 20 20 19 18 18 18 18 18 17 18 19 20 20 19 18 17 17 17
22 19 17 17 20 19 20 18 19 19 19 19 20 19 19 20 20 20 19 19 20 19 19 20 20 19 20 20 18 18 18 17
22 20 18 17 19 21 19 18 18 18 18 19 19 18 18 20 20 20 19 19 19 20 20 19 19 19 19 19 19 18 18 17
23 21 19 17 19 20 18 18 18 18 18 18 19 18 18 20 20 20 19 19 20 19 19 19 19 19 19 19 19 19 18 18
24 21 19 17 17 19 19 17 17 17 17 18 18 18 18 19 19 20 19 19 18 18 19 19 19 19 19 19 19 19 18 18
24 23 20 18 18 19 18 18 17 18 18 17 17 17 18 17 17 17 18 17 17 18 18 19 19 19 19 19 19 19 19 18
23 24 21 19 19 19 18 18 17 20 21 17 17 17 17 17 17 17 17 17 16 17 18 19 19 19 19 19 19 19 19 18
22 23 22 20 19 19 19 19 20 20 21 19 17 17 17 16 17 17 17 16 15 16 16 18 19 19 19 19 18 18 18 17
20 22 23 21 20 20 21 21 20 20 21 20 18 17 17 16 16 16 16 16 16 16 16 16 18 18 17 16 15 15 15 15
18 22 23 22 21 21 21 21 20 20 20 20 19 16 17 17 16 16 16 16 15 15 15 16 16 16 17 17 18 17 14 15
15 19 23 22 21 21 21 20 21 20 20 20 18 17 17 17 16 16 16 16 15 15 15 15 16 15 16 19 18 20 21 17
12 15 16 21 19 20 21 21 20 19 20 19 17 17 18 16 16 16 16 16 16 15 15 15 16 15 15 17 19 20 20 19
9 10 12 16 18 19 19 21 21 20 20 19 17 16 17 17 16 16 16 16 16 16 15 15 15 16 16 16 17 18 18 19
7 9 8 11 13 16 18 18 20 20 19 18 17 16 16 16 17 16 16 16 16 15 15 15 15 15 16 17 17 17 17 18
5 7 7 8 9 10 13 16 17 18 19 18 17 16 16 16 16 16 16 16 16 15 16 15 16 16 16 16 17 18 17 16
3 4 5 6 7 9 9 10 12 14 16 17 18 17 16 16 16 16 16 16 16 16 16 16 16 16 16 15 16 15 15 16

GFSFLT2_925_temp_123.txt.gz
Temp
24 20 19 21 22 22 22 22 22 22 22 22 21 21 21 20 20 20 20 20 20 20 20 20 20 19 19 19 19 20 20 20
24 22 21 20 20 21 21 21 21 21 21 21 21 21 21 20 20 20 19 20 20 20 20 19 19 19 19 19 19 19 19 20
23 23 23 22 22 20 20 21 21 21 20 21 20 20 20 20 19 19 19 19 19 19 19 19 19 18 18 19 19 19 20 19
23 23 23 23 23 22 20 20 19 19 19 19 20 21 21 21 20 19 19 19 19 19 19 19 19 19 18 18 18 20 19 18
24 23 21 20 23 23 22 22 21 21 21 21 20 22 21 21 20 19 18 18 18 18 18 18 19 21 21 20 20 20 20 18
26 23 20 19 20 22 22 23 23 22 22 21 21 21 21 20 21 21 20 19 20 19 20 20 21 21 20 20 20 20 21 18
26 25 22 20 19 23 22 22 22 23 22 20 21 21 21 21 21 21 20 20 21 20 20 20 20 20 21 20 19 19 20 19
25 25 24 21 20 21 22 23 21 21 20 20 20 20 21 21 21 21 20 20 20 20 20 20 21 21 20 20 20 20 19 20
25 25 24 22 21 21 23 22 21 19 19 20 20 20 20 22 21 20 20 20 20 20 20 20 20 21 21 20 19 19 19 19
24 24 25 23 20 20 22 22 20 19 18 19 19 19 20 20 22 21 20 20 19 19 19 20 20 20 21 21 21 20 19 19
23 24 24 24 21 20 21 22 20 20 20 19 18 18 19 19 22 20 20 19 19 19 20 20 19 20 20 21 21 20 20 19
22 23 24 23 21 20 20 21 21 21 22 22 18 18 18 18 19 18 19 18 18 19 19 19 20 19 20 20 20 20 20 19
21 21 22 22 22 20 20 22 21 21 23 23 19 18 18 17 17 17 18 18 17 17 18 19 19 19 19 19 19 18 18 19
19 19 18 19 22 20 20 22 22 22 23 23 22 18 17 17 17 17 17 17 17 17 17 17 19 19 19 18 18 18 17 17
14 15 17 18 20 23 21 22 23 23 24 23 22 19 17 17 17 17 17 16 17 17 17 17 18 18 18 19 19 21 23 19
8 10 14 16 15 17 21 22 24 24 24 23 22 21 17 17 17 17 16 16 16 16 17 17 17 16 16 17 20 22 22 22
5 7 10 11 11 14 22 21 24 24 24 23 23 21 19 17 16 16 16 16 16 17 16 17 17 17 16 17 17 20 20 21
3 6 8 8 10 16 22 21 23 24 23 23 22 19 19 19 17 17 16 16 16 16 16 16 16 16 17 18 19 20 20 20
3 5 6 7 9 11 13 18 21 22 21 21 20 18 18 20 19 18 16 16 16 16 16 16 16 16 16 17 19 19 19 20
2 4 5 6 7 8 9 11 14 14 15 14 17 17 17 17 17 18 18 17 16 16 16 16 16 16 16 17 18 18 19 19

GFSFLT2_925_temp_126.txt.gz
Temp
23 23 22 22 21 21 22 22 22 22 22 22 21 21 21 21 21 20 20 20 20 20 20 20 20 20 20 20 20 20 20 19
24 22 22 21 21 21 21 21 21 22 22 21 21 21 21 21 20 20 20 20 20 20 20 20 19 19 19 19 19 19 20 19
24 23 22 21 20 20 20 20 21 21 21 20 20 20 20 20 20 20 20 19 19 19 19 19 19 19 19 19 19 19 19 19
25 24 23 22 22 21 21 20 20 20 20 20 20 20 20 19 19 19 20 19 19 19 19 19 19 19 19 18 19 19 19 19
27 24 24 22 22 23 21 20 19 19 20 19 20 20 21 21 20 19 19 19 19 19 19 19 19 19 19 20 20 20 20 19
26 26 23 23 23 22 22 21 20 20 20 20 20 20 21 22 20 19 19 19 18 19 18 19 20 20 21 20 20 20 20 19
24 25 24 23 22 23 21 22 22 21 21 21 20 21 21 21 20 20 19 19 19 19 19 20 20 20 20 20 21 20 20 19
23 23 24 22 21 21 21 22 23 23 22 21 21 21 21 20 20 20 20 20 20 20 20 20 20 20 20 20 20 20 20 19
23 23 23 24 21 21 22 20 23 22 22 21 21 21 21 20 20 20 20 20 20 20 20 20 20 20 20 20 20 20 20 19
23 23 23 23 23 22 21 22 22 21 21 20 21 20 20 20 20 21 20 20 20 20 20 20 20 20 20 20 20 20 19 19
19 23 23 23 23 22 21 21 22 21 20 19 20 20 20 20 21 21 20 20 20 20 20 20 19 20 20 20 20 20 20 19
14 15 21 22 22 22 21 20 21 21 19 19 19 20 20 20 20 21 21 20 20 20 20 19 19 20 20 20 20 20 20 19
11 12 13 19 21 21 21 19 20 20 20 20 19 19 20 20 20 20 20 20 19 19 19 19 19 19 19 20 20 20 20 19
8 9 10 11 14 18 20 19 19 20 20 21 20 19 19 19 19 19 20 19 18 19 19 19 19 19 19 19 16 18 18 19
6 6 7 8 10 13 16 17 18 19 20 21 21 18 18 18 18 18 18 18 18 18 18 18 18 19 19 19 16 16 18 18
4 5 5 6 8 10 13 12 13 19 20 22 22 19 18 17 18 18 17 17 18 18 17 18 18 18 18 19 20 19 18 16
2 3 4 5 6 9 9 10 12 14 20 22 23 18 18 17 18 17 17 17 17 17 17 17 17 18 17 17 18 18 18 18
0 1 3 5 6 7 9 11 12 14 20 23 23 20 17 18 17 17 17 17 17 17 17 17 17 17 17 17 18 17 17 18
-0 0 2 4 5 7 9 11 13 16 19 23 23 21 18 17 17 17 17 17 16 16 16 17 17 17 17 16 17 18 19 19
-1 -0 2 3 5 7 8 10 11 13 15 14 19 19 19 18 17 17 17 17 16 16 16 16 16 17 16 17 17 18 18 19

GFSFLT2_925_temp_129.txt.gz
Temp
23 23 23 23 22 22 22 22 22 23 22 22 22 21 21 21 21 20 20 20 20 20 20 20 20 20 20 20 19 19 19 18
24 23 23 23 22 21 21 21 22 22 22 21 21 21 21 21 20 20 20 20 20 20 20 20 20 20 19 19 19 19 19 19
25 23 23 22 22 21 21 21 21 21 21 20 20 20 20 20 20 20 20 20 20 20 20 19 19 19 19 19 19 19 19 19
25 24 23 22 22 22 21 21 20 20 20 20 20 20 20 20 20 20 19 19 19 19 19 19 19 19 19 19 19 19 18 19
24 24 23 22 22 21 21 21 21 20 20 19 20 20 20 20 20 19 19 19 19 19 19 19 19 19 19 20 20 19 19 19
23 23 23 22 23 22 22 21 21 21 20 19 19 20 19 20 20 19 19 19 19 19 19 19 19 19 19 20 20 19 19 19
22 23 23 23 22 23 22 22 20 20 20 20 19 20 20 20 20 20 19 19 19 19 19 19 20 19 19 20 20 20 19 19
16 17 20 23 22 22 22 23 22 21 20 20 20 20 20 20 20 20 20 19 19 19 19 19 20 19 20 20 20 20 19 19
12 12 15 17 22 22 22 22 22 21 21 21 20 20 20 20 20 20 20 19 19 19 19 20 19 20 20 20 20 20 19 19
9 10 11 14 15 19 22 22 21 21 22 21 21 21 20 20 20 20 20 19 20 19 19 20 20 20 20 20 20 20 20 19
7 8 8 10 12 15 19 22 21 21 21 22 21 21 21 20 20 20 20 20 20 20 20 20 20 20 20 20 20 20 20 19
6 6 6 7 9 11 15 18 21 21 20 20 21 20 20 20 20 20 20 20 20 20 20 20 20 20 20 20 20 20 20 19
5 4 5 5 6 7 9 11 16 18 21 20 20 21 20 20 20 20 20 20 20 20 20 20 19 19 19 19 19 20 20 20
4 4 3 4 5 6 7 9 13 17 17 20 19 19 20 20 19 20 20 19 19 20 20 19 19 19 18 18 15 17 19 19
3 2 2 2 3 4 6 8 11 13 17 17 19 18 20 19 19 19 19 19 19 19 19 19 18 19 19 18 15 15 15 18
1 1 1 1 2 3 5 6 8 10 11 14 16 18 19 18 19 19 19 19 19 19 19 19 18 18 18 19 20 19 15 15
-0 -0 -0 1 2 3 5 7 8 8 10 12 13 16 18 18 18 19 18 18 18 18 18 19 19 18 18 18 19 18 18 16
-1 -1 -0 0 2 3 4 5 6 8 10 11 12 14 16 18 18 18 18 17 18 18 18 18 17 18 19 18 18 18 17 15
-1 -1 -0 0 2 3 4 6 8 9 10 11 13 13 13 17 17 17 17 17 17 17 17 17 17 17 18 17 18 18 18 18
-1 -1 -1 0 1 3 4 6 8 10 11 13 13 15 15 17 17 17 17 17 16 16 16 16 17 17 17 17 17 18 18 18

GFSFLT2_925_temp_132.txt.gz
Temp
24 24 23 23 23 22 22 22 22 21 21 21 21 21 21 21 21 21 21 20 20 20 20 20 20 20 20 19 19 18 19 20
24 22 23 22 22 22 22 22 21 21 21 21 20 20 20 21 21 20 20 20 20 20 20 20 19 19 20 19 19 18 19 19
23 22 21 21 22 22 22 22 21 21 20 21 20 19 20 20 20 20 20 20 20 20 19 19 19 19 19 19 19 19 18 19
18 20 22 22 20 21 21 21 21 21 21 20 20 19 19 20 20 20 20 20 19 19 19 19 19 19 19 19 19 19 19 19
16 17 19 19 21 21 20 21 21 21 21 20 20 19 19 19 19 19 19 19 19 19 19 19 19 19 19 19 19 19 19 19
15 15 15 18 19 19 22 20 21 20 20 21 20 19 19 19 19 19 19 19 19 19 19 19 19 19 19 19 19 19 19 19
13 13 13 13 16 19 19 21 21 21 20 20 20 19 19 19 19 19 19 19 19 19 19 19 19 19 19 19 19 19 19 19
10 13 11 12 13 16 18 19 19 20 20 20 20 20 19 19 19 19 19 19 19 19 19 19 19 19 19 19 19 20 20 19
6 7 9 8 10 12 14 16 18 18 21 20 20 20 20 19 19 19 19 19 19 19 19 19 19 19 19 19 19 20 20 19
6 5 5 8 7 8 11 14 16 17 18 21 20 20 20 19 19 19 19 19 19 19 19 19 19 19 19 19 20 20 20 20
4 4 4 4 6 6 8 10 14 14 17 18 20 19 20 20 19 19 19 19 19 19 18 19 18 19 19 20 20 20 20 20
3 3 3 3 3 4 5 7 11 14 14 17 18 19 19 21 20 19 19 19 19 19 18 19 19 19 19 20 20 20 20 20
1 1 2 2 2 2 4 4 6 10 13 15 17 18 19 19 20 19 19 19 19 19 18 19 18 20 20 19 19 20 20 20
0 0 1 1 1 1 2 3 4 6 11 13 15 18 18 19 19 19 19 18 18 18 18 17 17 19 19 18 16 17 19 19
-0 -1 -1 -0 -0 0 1 3 4 6 8 11 13 15 17 17 17 18 18 18 17 18 18 18 17 18 19 18 15 15 15 18
-1 -1 -1 -0 -0 0 1 2 4 5 7 8 10 12 14 17 17 17 19 19 17 17 18 18 18 18 17 19 20 19 15 14
-1 -1 -1 -1 -0 0 1 2 4 5 6 7 9 10 12 14 15 15 17 19 17 17 17 17 18 18 17 16 18 17 17 14
-1 -1 -1 -1 -0 0 1 2 4 5 6 6 8 10 11 13 14 13 16 17 17 17 17 17 17 18 17 18 18 17 15 15
-1 -2 -1 -1 -1 -0 1 3 4 5 6 7 8 9 11 13 14 14 13 16 17 17 17 17 17 18 17 17 17 18 18 18
-2 -2 -1 -1 -1 -1 1 2 3 5 6 8 9 10 11 13 13 14 14 13 17 17 17 18 17 18 18 18 17 17 18 18

GFSFLT2_925_temp_138.txt.gz
Temp
19 19 19 20 20 18 18 18 19 20 20 20 20 20 20 20 20 20 20 20 20 20 20 20 20 19 19 19 19 19 19 19
17 18 18 19 20 20 20 19 18 19 19 20 20 20 19 19 20 20 20 20 20 20 20 20 20 19 19 19 19 19 19 19
15 17 17 17 18 19 20 20 19 18 18 19 20 21 20 19 19 20 19 20 20 20 20 20 20 19 19 18 18 19 19 19
11 12 14 16 17 18 19 19 19 18 18 18 19 19 20 20 19 19 19 19 19 19 19 19 19 19 19 18 18 19 18 19
8 9 10 11 13 15 17 17 18 19 18 16 18 17 18 19 20 19 19 19 19 19 19 19 19 19 19 18 18 18 18 19
6 7 8 9 10 12 13 15 16 17 18 18 16 17 18 18 18 19 19 19 18 18 18 18 18 18 19 19 18 18 18 19
6 6 6 8 9 10 11 12 13 15 16 17 16 16 16 17 17 18 18 18 18 18 18 17 18 18 18 18 18 18 18 18
4 4 5 5 6 7 8 9 10 12 14 15 16 15 15 16 17 17 17 18 17 18 18 17 17 18 18 18 18 18 18 19
2 2 3 4 5 5 5 6 6 7 10 11 13 14 13 15 16 17 16 17 17 17 16 17 17 18 18 18 18 18 18 19
1 1 2 2 2 3 3 4 4 4 4 7 9 11 13 13 15 16 17 17 17 17 16 16 17 17 18 18 18 18 18 19
0 1 0 0 1 1 1 1 2 2 2 3 6 8 10 11 13 15 16 17 16 16 16 16 16 16 17 18 18 18 18 19
-0 -0 -0 -1 -0 -0 0 0 0 1 1 1 2 4 6 8 11 14 16 16 16 16 16 16 16 16 16 17 17 18 18 18
-1 -1 -1 -1 -1 0 0 0 0 1 1 1 1 3 5 7 9 12 14 16 16 16 16 16 15 16 15 15 15 17 17 18
-1 -1 -1 -1 -0 -1 -0 -0 0 1 1 1 2 3 4 6 8 10 12 14 15 16 16 16 16 15 16 16 15 15 15 16
-1 -1 -1 -1 -1 -1 -1 -1 0 1 1 2 2 2 3 5 7 7 9 12 15 15 16 16 16 15 16 17 14 17 14 16
-1 -1 -1 -1 -2 -1 -1 -1 0 0 1 1 2 3 3 4 5 6 8 11 14 16 15 16 16 16 15 17 19 18 15 14
-1 -1 -1 -2 -2 -1 -1 -1 -1 -0 0 1 2 3 4 4 4 6 8 11 13 14 15 15 16 17 15 16 15 16 17 14
-2 -2 -2 -2 -2 -2 -1 -1 -1 0 1 1 2 4 4 5 5 6 9 11 13 15 14 17 13 16 16 16 17 17 14 14
-2 -2 -2 -2 -2 -2 -2 -1 -1 -1 0 1 2 3 4 6 6 7 9 12 13 14 15 15 14 14 16 17 17 18 19 18
-2 -2 -2 -2 -2 -2 -2 -2 -2 -1 -1 -0 1 2 4 5 6 8 8 10 13 14 14 14 17 13 15 16 17 17 18 19

GFSFLT2_925_temp_141.txt.gz
Temp
17 18 18 19 19 19 19 18 18 18 18 19 20 20 20 20 20 20 20 20 20 20 20 20 20 20 20 19 19 19 18 18
15 16 17 18 18 19 19 19 19 18 18 18 19 19 20 20 20 20 20 20 20 20 20 20 20 19 19 19 19 19 18 18
14 14 15 16 17 18 19 19 19 18 18 17 18 19 19 19 20 20 20 20 20 20 20 20 20 19 19 19 19 18 18 18
9 11 12 13 14 15 16 17 18 18 18 17 17 17 19 19 19 19 20 20 20 20 20 20 19 18 18 18 18 18 18 18
6 8 9 10 11 12 13 15 16 17 17 17 17 16 17 18 19 19 19 19 19 19 19 18 18 18 18 18 18 18 18 17
5 5 5 7 7 7 9 11 13 15 15 15 16 17 16 16 17 17 17 17 18 18 18 18 18 17 17 17 17 18 18 18
4 4 4 3 4 4 5 6 7 11 13 12 12 13 15 16 16 17 17 17 18 18 17 17 17 18 17 17 17 17 18 18
3 3 3 3 3 3 3 4 4 5 7 10 10 9 11 11 15 16 17 17 17 17 17 17 17 17 18 17 17 17 17 17
2 2 2 1 2 2 2 3 3 3 4 5 7 7 7 9 11 14 15 16 16 17 17 17 17 16 17 17 17 17 17 17
1 1 1 1 1 1 2 2 2 3 3 3 3 4 5 6 8 10 13 15 16 16 17 16 16 16 16 16 17 17 17 17
1 1 1 1 1 1 2 2 2 2 2 3 3 3 3 4 6 8 10 13 15 16 16 16 16 16 16 16 17 18 17 18
1 1 1 0 1 1 2 2 2 2 2 3 2 2 3 3 5 6 7 10 13 15 16 16 16 16 16 16 16 17 17 18
1 1 1 1 1 1 0 0 1 1 2 2 2 2 2 3 4 5 7 9 11 13 16 16 16 16 16 16 16 16 16 17
1 1 0 0 -0 -1 -1 -1 -0 0 1 2 2 2 2 2 3 4 6 9 10 12 15 15 15 16 16 17 17 16 15 16
0 0 0 -0 -1 -1 -1 -1 -0 0 1 1 1 2 2 3 3 3 6 7 9 11 13 13 13 14 16 18 18 18 19 17
0 -0 -1 -1 -1 -1 -1 -1 -1 -0 -0 -0 0 1 2 3 4 4 4 5 8 10 12 14 14 15 14 16 19 21 20 19
-0 -0 -1 -1 -2 -2 -1 -1 -1 -1 -0 -0 0 1 2 3 4 5 4 5 7 9 12 13 13 15 14 15 17 17 18 21
-1 -1 -1 -1 -2 -1 -1 -1 -2 -2 -1 -1 -0 0 1 2 4 5 5 5 7 9 11 13 14 14 15 15 16 17 18 19
-1 -1 -1 -2 -2 -2 -2 -2 -2 -2 -2 -2 -1 -0 1 1 2 4 5 6 8 10 11 12 14 14 16 14 15 17 19 19
-2 -2 -1 -2 -2 -2 -2 -3 -3 -3 -3 -3 -2 -2 -1 1 2 3 5 7 8 9 10 11 13 13 14 15 13 15 17 17

GFSFLT2_925_temp_147.txt.gz
Temp
14 14 15 16 15 18 19 19 19 19 18 18 19 19 20 20 20 20 20 20 20 21 21 20 20 20 20 20 20 20 20 23
13 13 13 14 15 15 17 17 18 18 18 18 18 19 19 20 20 20 20 20 20 20 20 20 20 20 20 19 19 19 19 21
13 13 13 13 15 15 15 15 16 16 16 16 17 18 17 18 19 20 20 20 20 20 20 20 20 19 19 19 19 19 20 21
14 12 12 12 14 13 15 15 16 15 15 14 15 15 17 18 19 19 20 20 20 20 20 20 20 19 20 20 18 20 21 22
13 12 11 11 12 13 14 14 14 14 15 13 13 14 16 17 19 20 19 19 19 20 19 19 19 19 21 21 20 20 21 22
13 12 11 10 11 12 12 13 13 14 13 12 13 14 14 15 17 18 19 20 19 19 20 21 20 19 20 22 22 22 22 22
11 11 10 10 10 10 11 11 12 11 12 12 12 11 12 13 14 16 17 19 20 20 19 20 20 20 20 21 22 23 22 22
11 10 9 9 9 9 9 11 11 11 11 12 10 10 10 11 12 14 15 17 18 20 21 19 19 19 20 20 20 22 23 22
10 10 9 9 9 9 9 10 9 10 10 11 10 10 10 9 10 11 13 14 15 17 18 20 19 18 19 19 20 20 22 23
10 10 9 8 8 8 9 9 9 10 10 10 10 9 9 9 9 10 11 12 14 15 17 19 20 19 18 19 19 20 21 22
10 9 9 8 8 9 9 9 9 9 9 9 9 8 8 8 8 9 9 10 12 13 15 17 17 20 19 18 19 19 20 22
10 9 9 8 9 9 9 8 8 8 8 8 7 6 6 6 5 6 7 8 10 12 13 15 16 17 20 20 19 18 19 20
9 9 8 8 8 8 8 7 7 7 7 6 5 5 4 3 3 3 4 6 8 9 11 13 14 15 16 17 17 17 17 18
9 9 8 8 7 7 7 6 7 6 6 5 5 4 3 2 2 3 3 4 5 6 7 10 13 15 17 18 18 17 16 17
9 8 8 8 6 7 6 6 5 5 3 3 3 2 2 2 2 3 3 3 4 5 6 7 9 13 17 17 17 19 19 17
8 8 8 7 6 5 4 4 4 3 2 2 2 2 2 3 2 2 2 3 3 4 5 7 8 9 14 17 17 19 20 19
7 7 7 7 6 4 3 2 2 2 1 1 1 1 1 1 1 0 1 2 2 4 5 6 8 10 11 15 17 16 16 17
6 7 7 6 5 3 2 2 1 0 -0 -0 -0 -0 -1 -1 -1 -1 -0 1 2 3 4 5 6 9 10 12 15 16 16 16
5 6 6 5 4 3 2 1 0 -1 -1 -1 -1 -1 -1 -2 -2 -1 -1 0 2 3 4 5 7 8 11 12 14 16 18 17
3 4 4 4 3 2 1 -0 -1 -1 -2 -2 -2 -2 -2 -3 -3 -2 -1 -0 1 3 5 5 6 8 10 12 13 14 16 17

GFSFLT2_925_temp_150.txt.gz
Temp
15 15 16 16 15 16 18 19 19 19 19 20 20 19 19 19 20 20 20 20 20 20 20 20 20 20 20 20 20 20 20 20
14 14 14 15 15 15 15 16 16 16 16 16 19 19 19 19 19 19 20 20 20 20 20 20 20 19 19 19 19 19 20 20
14 13 13 13 15 15 15 15 15 15 15 15 16 16 17 18 18 20 20 20 20 20 20 20 20 20 19 19 19 19 19 20
14 12 12 12 13 13 14 14 14 14 15 15 15 14 15 16 17 18 19 20 20 20 20 20 20 19 19 19 19 19 19 20
13 12 11 11 11 12 12 12 13 13 13 14 13 13 13 14 15 16 17 19 19 19 19 20 20 19 19 19 20 20 19 20
12 11 10 10 10 11 11 11 12 12 12 12 12 12 11 11 12 13 14 16 17 19 19 20 19 19 19 19 20 20 20 20
11 11 10 10 10 10 10 10 11 11 11 11 11 11 10 10 10 11 12 13 15 17 18 19 20 20 19 19 20 21 21 21
11 11 10 9 9 9 10 10 10 10 10 11 11 10 10 10 10 10 10 11 13 14 15 16 17 19 19 19 19 20 21 21
11 11 10 9 9 9 9 10 10 9 10 10 10 10 9 9 9 9 10 10 11 11 13 15 17 19 19 19 19 19 20 21
11 10 10 9 9 9 9 10 9 10 9 9 9 8 7 7 7 7 8 8 9 10 11 13 14 16 19 19 19 19 19 20
11 10 9 9 9 9 9 9 9 8 8 8 8 7 6 5 5 5 5 5 6 7 9 11 13 14 17 18 19 18 19 19
11 10 9 9 9 8 9 8 8 8 8 7 6 5 5 4 3 3 3 3 5 6 7 8 9 12 14 16 16 18 18 19
10 10 9 9 8 8 8 7 7 7 6 5 4 4 3 3 3 3 3 3 4 4 5 6 7 8 13 14 15 16 18 18
10 9 9 8 7 7 6 6 6 5 4 3 3 2 2 2 2 2 2 3 3 4 4 5 6 7 9 12 13 16 17 17
9 9 9 8 7 6 4 5 4 4 3 2 1 1 1 1 1 1 1 1 2 3 4 4 5 6 8 9 13 15 16 18
8 8 8 7 6 4 4 3 3 3 2 1 1 0 0 0 -0 -1 -1 -0 0 1 3 4 5 6 8 9 10 12 14 16
7 8 8 6 6 4 3 2 2 1 1 0 -0 -0 -0 -1 -1 -2 -1 -1 -0 1 1 2 3 5 6 8 9 10 13 15
6 7 7 6 5 4 2 1 1 0 -0 -1 -1 -1 -1 -1 -2 -2 -2 -1 -1 0 1 2 3 4 6 7 8 10 12 14
5 5 5 4 4 3 1 0 -0 -1 -1 -1 -2 -2 -2 -2 -2 -3 -2 -2 -1 -1 1 2 3 4 5 6 7 9 11 12
3 4 3 3 3 2 1 -1 -1 -2 -2 -2 -3 -3 -3 -3 -3 -3 -3 -3 -2 -1 0 3 4 5 5 6 7 9 11 12

GFSFLT2_925_temp_153.txt.gz
Temp
15 16 16 15 15 16 15 16 16 16 16 17 18 19 18 19 18 18 19 19 20 20 20 20 20 20 20 19 19 19 19 19
14 14 15 15 15 14 14 15 15 15 15 15 16 18 18 18 18 18 18 19 19 19 20 20 20 20 20 19 19 19 19 20
13 13 13 14 14 13 14 14 14 14 14 14 15 15 15 16 16 16 17 18 19 19 19 19 20 20 20 19 19 19 19 19
12 12 12 12 12 12 13 13 13 13 13 13 13 13 13 13 14 15 16 17 18 18 18 19 19 19 20 20 19 19 19 20
12 11 11 11 11 11 11 11 11 11 12 11 11 11 12 12 12 12 13 14 15 16 17 17 17 19 19 19 20 19 20 20
11 10 10 10 10 10 10 10 10 10 10 10 10 10 10 10 10 10 10 11 11 13 13 15 16 17 18 19 18 19 19 20
11 10 10 10 10 10 10 10 10 10 10 10 9 9 9 9 9 9 9 9 10 10 11 12 14 16 16 16 19 19 19 19
11 10 10 10 9 9 9 10 9 9 9 9 8 8 8 7 7 7 7 7 7 8 9 10 11 13 14 16 17 18 19 20
10 10 9 9 9 9 9 9 9 8 8 8 7 7 6 6 5 5 5 5 6 6 7 8 9 11 12 14 15 17 18 19
10 10 9 9 9 9 9 8 8 8 7 7 6 5 5 4 4 4 3 3 3 4 5 6 7 8 10 11 14 16 17 18
10 9 9 9 8 8 7 7 7 7 6 5 5 4 3 3 2 3 3 3 3 3 4 5 5 6 7 9 11 13 15 17
10 9 9 8 8 7 7 6 6 5 4 3 2 2 2 2 2 2 2 2 3 3 4 4 4 5 6 7 9 12 13 14
9 9 8 7 7 6 5 4 4 4 3 2 1 1 1 1 1 1 1 1 1 2 3 4 5 5 5 7 9 10 12 14
9 8 7 7 6 5 4 3 3 3 2 1 0 0 0 0 -0 -0 -1 -0 0 1 1 3 4 5 6 7 9 12 14 16
8 8 7 6 5 4 3 2 2 1 0 -0 -0 -1 -1 -0 -1 -1 -1 -1 -1 -0 0 1 3 4 5 6 8 10 9 15
7 7 6 5 4 3 2 1 1 0 -0 -1 -1 -1 -1 -1 -2 -2 -2 -2 -1 -1 0 1 1 2 4 6 7 7 8 11
6 6 5 4 3 3 1 0 -0 -0 -1 -1 -2 -2 -2 -2 -2 -3 -3 -2 -2 -1 -1 0 1 2 3 4 6 6 7 8
5 5 4 3 3 2 1 -0 -1 -1 -2 -2 -2 -2 -3 -3 -3 -3 -3 -3 -2 -2 -1 -0 1 2 2 3 5 6 7 8
3 3 2 2 2 1 -0 -1 -2 -2 -3 -3 -3 -3 -3 -4 -4 -4 -4 -4 -3 -2 -1 -0 1 2 3 4 4 6 6 7
2 1 1 1 1 -0 -1 -2 -2 -3 -3 -4 -4 -4 -4 -4 -4 -4 -4 -4 -4 -3 -2 -2 -1 0 2 4 4 5 6 7

GFSFLT2_925_temp_156.txt.gz
Temp
14 14 14 14 14 14 15 14 15 14 14 15 16 17 18 18 18 18 17 18 18 19 18 19 19 20 20 20 20 20 19 20
14 14 14 14 14 13 14 13 13 13 13 13 14 15 16 16 17 17 16 17 17 18 18 18 18 18 19 19 20 20 19 20
13 13 13 13 12 12 13 12 12 13 13 12 13 13 13 14 14 14 15 15 16 17 17 17 17 18 18 18 19 19 19 19
11 12 12 12 11 11 11 11 11 11 11 11 11 11 11 11 12 12 12 13 14 15 16 16 17 16 16 17 18 19 19 19
11 11 11 11 10 10 10 10 10 10 10 10 10 10 10 10 10 10 10 10 11 12 13 14 14 15 15 15 16 17 18 19
10 10 10 10 10 10 9 9 9 9 9 9 8 8 8 8 8 8 8 8 8 8 8 9 11 12 13 14 16 16 17 18
10 10 10 9 9 9 9 9 9 8 8 7 7 7 6 6 6 6 6 6 6 7 7 7 8 9 11 12 13 15 15 16
10 9 9 9 9 9 8 8 8 7 7 6 6 5 5 4 4 4 4 4 4 4 5 5 6 7 8 9 11 13 15 16
9 9 9 9 8 8 8 7 7 6 6 5 4 3 3 3 3 2 2 2 3 3 3 4 4 5 6 7 9 10 13 15
9 9 9 8 8 7 7 6 6 5 5 4 3 2 2 2 2 1 2 2 3 3 3 3 4 4 4 5 7 8 10 13
9 8 8 8 7 7 6 5 5 4 3 2 2 1 1 1 1 1 1 1 2 2 3 3 4 4 4 5 5 6 8 10
9 8 7 7 7 7 6 5 3 3 2 1 0 0 0 0 -0 -0 -1 -0 0 1 1 2 3 4 5 5 5 6 8 9
8 7 7 7 6 5 4 3 2 2 1 -0 -0 -1 -1 -1 -1 -1 -2 -1 -1 -0 0 1 2 3 4 6 6 7 8 11
8 6 6 5 5 4 3 2 1 1 -0 -1 -1 -1 -1 -1 -1 -2 -2 -2 -1 -1 -0 0 1 2 3 4 6 9 8 11
7 5 5 4 4 4 3 2 1 -0 -1 -1 -2 -2 -2 -2 -2 -3 -2 -2 -2 -1 -1 0 1 1 2 3 6 8 7 10
6 5 4 3 3 3 1 -0 -1 -1 -1 -2 -2 -2 -2 -3 -3 -3 -3 -3 -3 -2 -1 -1 -0 1 2 3 4 5 6 7
4 4 3 3 2 1 0 -1 -1 -1 -2 -3 -3 -3 -3 -3 -3 -4 -4 -3 -3 -3 -2 -1 -1 0 1 2 3 4 5 6
3 3 2 2 1 0 -0 -1 -2 -2 -3 -3 -3 -4 -4 -3 -4 -4 -4 -4 -4 -3 -2 -1 -1 0 1 2 3 4 6 6
2 2 1 1 0 -1 -1 -2 -3 -3 -3 -4 -4 -4 -5 -4 -5 -5 -5 -5 -5 -4 -3 -3 -2 -1 -1 0 2 4 4 5
1 1 0 -0 -0 -1 -2 -2 -3 -4 -4 -5 -5 -5 -5 -5 -6 -5 -5 -5 -5 -5 -4 -4 -3 -3 -2 -2 -1 0 2 4

GFSFLT2_925_temp_159.txt.gz
Temp
14 14 14 14 15 14 15 14 14 13 13 14 15 15 15 15 15 14 15 16 17 17 17 17 17 18 18 18 19 19 20 20
14 14 14 14 14 13 13 13 13 13 12 12 13 13 14 14 14 13 11 11 14 16 17 17 17 17 17 17 17 18 19 20
13 13 13 12 12 12 12 11 11 11 11 11 12 12 12 12 12 11 11 10 11 12 14 16 17 17 17 17 17 17 18 18
11 11 11 11 10 10 10 10 10 10 10 11 11 11 11 10 11 10 11 10 11 12 12 13 14 15 16 16 16 16 16 17
10 10 10 10 10 10 10 9 9 9 9 9 9 9 9 9 9 9 9 8 9 10 11 11 12 11 12 13 14 15 15 16
10 10 10 10 9 9 9 9 8 8 8 7 7 7 7 7 6 6 6 6 6 6 7 7 8 10 10 10 11 13 14 16
9 9 9 9 9 8 8 8 7 7 6 6 6 6 6 5 4 4 4 4 4 4 4 5 5 6 7 8 9 10 12 14
9 9 9 9 8 8 7 7 6 6 5 5 5 4 4 3 3 2 2 2 3 3 3 3 3 4 4 5 7 8 10 11
9 8 8 8 8 7 6 6 5 5 4 4 3 3 2 2 2 1 1 1 1 2 2 3 3 3 3 4 4 6 8 10
8 8 8 7 7 6 6 5 5 4 3 3 3 2 2 1 0 -0 -0 0 1 1 1 1 2 3 4 4 4 5 5 7
8 8 7 7 7 6 5 5 4 4 3 3 2 1 1 0 -1 -1 -1 -1 -1 -1 -0 0 1 1 3 4 4 4 5 6
7 7 7 7 7 6 5 5 4 3 2 1 1 0 0 -0 -1 -2 -2 -2 -2 -1 -0 0 1 1 2 3 4 5 6 6
7 7 6 6 6 5 4 2 2 1 1 0 -0 -1 -1 -2 -2 -3 -3 -2 -2 -1 -1 -0 0 1 2 3 4 7 7 7
6 5 5 4 4 4 3 2 1 1 -0 -0 -1 -1 -2 -3 -3 -3 -3 -3 -2 -2 -1 -1 0 1 1 2 5 7 7 7
5 4 4 3 3 4 4 3 1 0 -1 -1 -2 -2 -2 -3 -3 -4 -4 -3 -3 -3 -2 -2 -1 -0 1 2 4 6 5 7
4 4 4 3 3 3 2 -0 -1 -2 -2 -2 -3 -3 -3 -3 -3 -4 -4 -4 -4 -3 -2 -2 -1 -0 0 2 2 3 4 5
4 4 3 2 2 1 0 -1 -2 -2 -2 -3 -4 -3 -3 -3 -4 -5 -5 -4 -5 -4 -3 -2 -2 -1 0 1 2 3 3 5
3 3 2 1 1 0 -0 -1 -2 -3 -3 -4 -4 -4 -4 -4 -5 -5 -5 -5 -5 -4 -4 -3 -3 -2 -1 -1 0 1 3 4
3 2 1 0 -0 -1 -1 -2 -3 -3 -4 -4 -4 -5 -5 -5 -6 -6 -6 -6 -6 -5 -5 -4 -4 -4 -4 -3 -2 -1 -0 2
2 1 -0 -1 -1 -1 -1 -2 -3 -4 -4 -4 -5 -6 -6 -6 -7 -6 -6 -6 -6 -6 -6 -6 -5 -5 -5 -4 -3 -3 -2 -1